When you browse on this site, cookies collect data to enhance your experience and personalize the content and advertising you see.
Visit our Privacy Policy to learn more. By continuing to use the site, you agree to this use of cookies and data.
  • In Czech Republic
  • List of Countries
  • For 7 days
  • Water Temperature
  • Weather Map
  • Weather Widgets
  • user-avatar
    Login

    Hourly Weather Lulea

    Today, 13 November, Wednesday

    Time Temperature Precipitation Wind Pressure Humidity
    00:00 -2°C° 0.3 mm 8 mps 757 mmHg 96%
    01:00 -2°C° 0.3 mm 8 mps 756 mmHg 97%
    02:00 -2°C° 1.3 mm 8 mps 755 mmHg 97%
    03:00 -2°C° 1.3 mm 8 mps 754 mmHg 97%
    04:00 -2°C° 1.3 mm 8 mps 753 mmHg 98%
    05:00 -1°C° 0.6 mm 8 mps 753 mmHg 96%
    06:00 -1°C° 0.6 mm 8 mps 753 mmHg 94%
    07:00 0°C° 0.6 mm 8 mps 753 mmHg 92%
    08:00 0°C° 0 mm 7 mps 753 mmHg 92%
    09:00 -1°C° 0 mm 6 mps 753 mmHg 91%
    10:00 0°C° 0 mm 5 mps 754 mmHg 91%
    11:00 0°C° 0 mm 5 mps 754 mmHg 92%
    12:00 0°C° 0 mm 4 mps 754 mmHg 93%
    13:00 0°C° 0 mm 4 mps 755 mmHg 94%
    14:00 0°C° 0 mm 4 mps 755 mmHg 94%
    15:00 0°C° 0 mm 4 mps 755 mmHg 95%
    16:00 0°C° 0 mm 4 mps 755 mmHg 96%
    17:00 +1°C° 0 mm 3 mps 755 mmHg 96%
    18:00 +1°C° 0 mm 3 mps 755 mmHg 97%
    19:00 +1°C° 0 mm 3 mps 755 mmHg 98%
    20:00 +2°C° 0 mm 2 mps 755 mmHg 98%
    21:00 +2°C° 0 mm 2 mps 754 mmHg 98%
    22:00 +2°C° 0 mm 1 mps 754 mmHg 98%
    23:00 +2°C° 0 mm 1 mps 754 mmHg 97%

    Tomorrow, 14 November, Thursday

    Time Temperature Precipitation Wind Pressure Humidity
    00:00 +2°C° 0 mm 1 mps 754 mmHg 97%
    01:00 +2°C° 0 mm 1 mps 754 mmHg 97%
    02:00 +1°C° 0 mm 2 mps 754 mmHg 97%
    03:00 +1°C° 0 mm 2 mps 754 mmHg 97%
    04:00 +1°C° 0 mm 2 mps 753 mmHg 97%
    05:00 +1°C° 0.2 mm 2 mps 754 mmHg 96%
    06:00 0°C° 0.2 mm 3 mps 754 mmHg 96%
    07:00 0°C° 0.2 mm 3 mps 754 mmHg 96%
    08:00 0°C° 0.1 mm 3 mps 754 mmHg 96%
    09:00 +1°C° 0.1 mm 2 mps 754 mmHg 95%
    10:00 +1°C° 0.1 mm 2 mps 755 mmHg 95%
    11:00 -1°C° 0 mm 3 mps 755 mmHg 94%
    12:00 -1°C° 0 mm 3 mps 755 mmHg 94%
    13:00 -1°C° 0 mm 3 mps 756 mmHg 93%
    14:00 -1°C° 0 mm 3 mps 756 mmHg 93%
    15:00 -2°C° 0 mm 3 mps 756 mmHg 92%
    16:00 -2°C° 0 mm 3 mps 756 mmHg 92%
    17:00 -4°C° 0 mm 3 mps 756 mmHg 90%
    18:00 -4°C° 0 mm 3 mps 756 mmHg 89%
    19:00 -4°C° 0 mm 4 mps 756 mmHg 88%
    20:00 -4°C° 0 mm 4 mps 757 mmHg 88%
    21:00 -4°C° 0 mm 4 mps 757 mmHg 88%
    22:00 -5°C° 0 mm 4 mps 757 mmHg 87%
    23:00 -5°C° 0 mm 4 mps 758 mmHg 88%

    Day after tomorrow, 15 November, Friday

    Time Temperature Precipitation Wind Pressure Humidity
    00:00 -7°C° 0 mm 4 mps 758 mmHg 88%
    01:00 -7°C° 0 mm 4 mps 759 mmHg 88%
    02:00 -8°C° 0 mm 4 mps 759 mmHg 88%
    03:00 -8°C° 0 mm 4 mps 760 mmHg 87%
    04:00 -9°C° 0 mm 4 mps 760 mmHg 87%
    05:00 -8°C° 0 mm 3 mps 761 mmHg 87%
    06:00 -8°C° 0 mm 3 mps 761 mmHg 86%
    07:00 -8°C° 0 mm 3 mps 762 mmHg 85%
    08:00 -6°C° 0 mm 2 mps 763 mmHg 84%
    09:00 -6°C° 0 mm 2 mps 764 mmHg 83%
    10:00 -4°C° 0 mm 1 mps 765 mmHg 81%
    11:00 -3°C° 0 mm 1 mps 765 mmHg 81%
    12:00 -3°C° 0 mm 1 mps 766 mmHg 81%
    13:00 -3°C° 0 mm 1 mps 766 mmHg 80%
    14:00 -4°C° 0 mm 1 mps 766 mmHg 81%
    15:00 -5°C° 0 mm 0 mps 766 mmHg 82%
    16:00 -5°C° 0 mm 0 mps 766 mmHg 83%
    17:00 -4°C° 0 mm 1 mps 767 mmHg 83%
    18:00 -4°C° 0 mm 1 mps 767 mmHg 84%
    19:00 -4°C° 0 mm 1 mps 767 mmHg 84%
    20:00 -4°C° 0 mm 1 mps 767 mmHg 85%
    21:00 -4°C° 0 mm 1 mps 768 mmHg 85%
    22:00 -4°C° 0 mm 1 mps 768 mmHg 86%
    23:00 -4°C° 0 mm 1 mps 768 mmHg 86%

    16 November, Saturday

    Time Temperature Precipitation Wind Pressure Humidity
    00:00 -6°C° 0 mm 2 mps 768 mmHg 86%
    01:00 -6°C° 0 mm 2 mps 768 mmHg 86%
    02:00 -6°C° 0 mm 2 mps 767 mmHg 86%
    03:00 -6°C° 0 mm 2 mps 767 mmHg 85%
    04:00 -3°C° 0 mm 1 mps 767 mmHg 85%
    05:00 -3°C° 0 mm 1 mps 767 mmHg 85%
    06:00 -3°C° 0 mm 1 mps 767 mmHg 85%
    07:00 -3°C° 0 mm 1 mps 767 mmHg 86%
    08:00 -3°C° 0 mm 1 mps 767 mmHg 86%
    09:00 -3°C° 0 mm 1 mps 768 mmHg 85%
    10:00 -3°C° 0 mm 1 mps 768 mmHg 85%
    11:00 -2°C° 0 mm 1 mps 767 mmHg 86%
    12:00 -2°C° 0 mm 1 mps 767 mmHg 86%
    13:00 -2°C° 0 mm 1 mps 767 mmHg 86%
    14:00 -2°C° 0 mm 1 mps 767 mmHg 88%
    15:00 -3°C° 0 mm 2 mps 767 mmHg 89%
    16:00 -3°C° 0 mm 2 mps 767 mmHg 91%
    17:00 -3°C° 0.1 mm 2 mps 766 mmHg 93%
    18:00 -2°C° 0.1 mm 3 mps 766 mmHg 95%
    19:00 -3°C° 0.1 mm 4 mps 766 mmHg 97%
    20:00 -3°C° 0.1 mm 4 mps 766 mmHg 97%
    21:00 -3°C° 0.1 mm 4 mps 765 mmHg 97%
    22:00 -1°C° 0.1 mm 3 mps 765 mmHg 97%
    23:00 -2°C° 0.2 mm 4 mps 764 mmHg 97%

    17 November, Sunday

    Time Temperature Precipitation Wind Pressure Humidity
    00:00 -2°C° 0.2 mm 5 mps 764 mmHg 97%
    01:00 -1°C° 0.2 mm 5 mps 763 mmHg 97%
    02:00 -2°C° 0.3 mm 6 mps 763 mmHg 97%
    03:00 -2°C° 0.3 mm 6 mps 762 mmHg 97%
    04:00 -1°C° 0.3 mm 6 mps 761 mmHg 97%
    05:00 0°C° 1.3 mm 5 mps 761 mmHg 97%
    06:00 0°C° 1.3 mm 5 mps 760 mmHg 98%
    07:00 0°C° 1.3 mm 5 mps 759 mmHg 98%
    08:00 0°C° 0.2 mm 5 mps 760 mmHg 98%
    09:00 0°C° 0.2 mm 5 mps 760 mmHg 98%
    10:00 0°C° 0.2 mm 5 mps 760 mmHg 98%
    11:00 +1°C° 0 mm 5 mps 760 mmHg 98%
    12:00 +1°C° 0 mm 6 mps 760 mmHg 97%
    13:00 +1°C° 0 mm 6 mps 760 mmHg 96%
    14:00 +1°C° 0 mm 6 mps 760 mmHg 96%
    15:00 +1°C° 0 mm 6 mps 761 mmHg 95%
    16:00 +1°C° 0 mm 5 mps 761 mmHg 94%
    17:00 0°C° 0 mm 5 mps 761 mmHg 94%
    18:00 0°C° 0 mm 4 mps 762 mmHg 94%
    19:00 0°C° 0 mm 4 mps 762 mmHg 95%
    20:00 0°C° 0 mm 4 mps 763 mmHg 94%
    21:00 0°C° 0 mm 4 mps 763 mmHg 94%
    22:00 0°C° 0 mm 3 mps 763 mmHg 94%
    23:00 0°C° 0 mm 3 mps 764 mmHg 94%

    18 November, Monday

    Time Temperature Precipitation Wind Pressure Humidity
    00:00 +1°C° 0 mm 2 mps 764 mmHg 94%
    01:00 -1°C° 0 mm 2 mps 764 mmHg 94%
    02:00 -1°C° 0 mm 2 mps 764 mmHg 94%
    03:00 +1°C° 0 mm 1 mps 764 mmHg 93%
    04:00 +1°C° 0 mm 1 mps 765 mmHg 93%
    05:00 +1°C° 0 mm 1 mps 765 mmHg 93%
    06:00 +1°C° 0 mm 1 mps 765 mmHg 93%
    07:00 0°C° 0 mm 1 mps 765 mmHg 94%
    08:00 0°C° 0 mm 1 mps 766 mmHg 94%
    09:00 0°C° 0 mm 1 mps 766 mmHg 95%
    10:00 0°C° 0 mm 1 mps 766 mmHg 95%
    11:00 0°C° 0 mm 1 mps 766 mmHg 95%
    12:00 0°C° 0 mm 1 mps 766 mmHg 96%
    13:00 0°C° 0 mm 1 mps 766 mmHg 96%
    14:00 0°C° 0 mm 1 mps 766 mmHg 96%
    15:00 -2°C° 0 mm 2 mps 766 mmHg 96%
    16:00 -1°C° 0 mm 2 mps 766 mmHg 96%
    17:00 -1°C° 0 mm 2 mps 766 mmHg 96%
    18:00 -1°C° 0 mm 2 mps 766 mmHg 96%
    19:00 +1°C° 0 mm 2 mps 766 mmHg 95%
    20:00 0°C° 0 mm 3 mps 766 mmHg 96%
    21:00 0°C° 0 mm 3 mps 766 mmHg 96%
    22:00 0°C° 0 mm 3 mps 766 mmHg 96%
    23:00 0°C° 0.1 mm 3 mps 766 mmHg 97%
    Show more